Погода в Перемышлянах

Украина / Львовская область     49°40′13″N   24°33′36″E
темп.,
°C
ветер,
м/с
пор.,
м/с
влажн.,
%
обл.,
%
осадки,
мм/ч
давл.,
гПа
погр.,
м
15 мая, сб
сб1500:00+8юз369472 0.0 1007119
03:00+10зюз4995100 0.3 1007620
06:00+11зсз51097100 1.1 1008649
09:00+10з5993100 1.4 1010557
12:00+12з468299 0.1 1011710
15:00+16з3465100 0.1 10101241
18:00+17сз12617 0.1 10101113
21:00+12ююв22845 0.1 101016
16 мая, вс
вс1600:00+10юв229077 0.0 101019
03:00+9юв3492100 0.0 101055
06:00+9юв3593100 0.0 1009106
09:00+14ююв4879100 0.0 1009381
12:00+18юв56665 0.0 1008883
15:00+20ююв576483 1.8 10061382
18:00+16ююз4881100 3.4 1006580
21:00+12ссв119572 7.1 100717
17 мая, пн
пн1700:00+12юз3592100 0.3 1008123
03:00+11сз1192100 1.7 100811
06:00+11ююв119393 0.0 100812
09:00+14юз238270 0.1 1008348
12:00+17юз346120 0.1 10071369
15:00+19ю225599 0.1 10051715
18:00+19всв225759 0.0 10041078
21:00+14ю3382100 0.6 100437
18 мая, вт
вт1800:00+11зсз51098100 8.2 1005513
03:00+10зсз4798100 14.9 1005493
06:00+10зсз51196100 0.3 1005577
09:00+11з7109084 0.3 1007724
12:00+12зсз71081100 0.1 10081017
15:00+15зсз7963100 0.2 10071770
18:00+14зсз5872100 0.4 10081341
21:00+10з38905 0.6 1010158
19 мая, ср
ср1900:00+8з410955 0.0 1011236
03:00+7зюз511965 0.0 1012259
06:00+7з4109710 0.0 1013268
09:00+11з698423 0.0 1014608
12:00+14зсз676643 0.6 10131505
15:00+13зсз567498 1.3 1013957
18:00+14сз457095 0.6 10131107
21:00+10сз2388100 1.3 101533